[[{"header":{"parameterUnit":"m.s-1","parameterCategory":1,"la1":30.2991,"la2":30.254,"lo1":-89.0895,"lo2":-89.0444,"dy":0.0017,"dx":0.0017,"nx":28,"ny":28,"refTime":"2025-11-28T09:00:00:Z","depth":0,"parameterNumber":2,"parameterNumberName":"U-component_of_WINDS"},"data":[0,0,0,0,0,0,0,0,0,0,0,0,0,0,0,0,0,0,0,0,0,0,0,0,0,0,0,0,0,0,0,0,0,0,0,0,0,0,0,0,0,0,0,0,0,0,0,0,0,0,0,0,0,0,0,0,0,0,-2.8207,-2.8207,0,-2.8199,-2.8199,-2.8199,-2.8142,-2.8141,-2.8139,-2.8138,-2.8131,-2.8132,-2.8133,0,0,0,0,0,0,0,0,0,0,0,0,0,-2.8173,-2.8174,-2.8207,-2.8207,-2.8207,-2.8199,-2.8199,-2.8199,-2.8142,-2.8141,-2.8139,-2.8137,-2.813,-2.8132,-2.8133,0,0,0,0,0,0,0,0,0,0,0,0,0,-2.8179,-2.8174,-2.8207,-2.8177,-2.8175,-2.8199,-2.8199,-2.8199,-2.8143,-2.8141,-2.8139,-2.8137,-2.813,-2.8132,-2.8133,-2.8186,0,0,-2.8138,-2.8139,0,0,0,0,0,0,0,0,-2.8178,-2.818,-2.8182,-2.818,-2.8177,-2.8169,-2.8184,-2.8195,-2.8143,-2.8155,-2.8138,-2.8136,-2.8145,-2.8146,-2.8149,-2.8185,-2.8185,-2.8139,-2.814,-2.814,-2.8141,0,0,0,0,0,0,0,-2.8178,-2.818,-2.8204,-2.8182,-2.8179,-2.8165,-2.8163,-2.8186,-2.8162,-2.8154,-2.815,-2.8149,-2.8144,-2.8147,-2.8148,-2.8185,-2.8139,-2.814,-2.8141,-2.8142,-2.8264,-2.8266,0,0,0,0,0,0,-2.8182,-2.818,-2.8204,-2.8204,-2.8172,-2.8167,-2.8165,-2.8174,-2.8162,-2.8158,-2.8151,-2.8147,-2.8146,-2.8146,-2.8148,-2.8208,-2.814,-2.8142,-2.8143,-2.8261,-2.8264,-2.8267,0,0,0,0,0,0,-2.8181,-2.8184,-2.8204,-2.8191,-2.8192,-2.817,-2.818,-2.8175,-2.8179,-2.816,-2.8155,-2.816,-2.8144,-2.8145,-2.8177,-2.8207,-2.8143,-2.8144,-2.8259,-2.8262,-2.8265,-2.833,0,0,0,0,0,0,-2.818,-2.8185,-2.8204,-2.8192,-2.8193,-2.8233,-2.8182,-2.8176,-2.8182,-2.8176,-2.8166,-2.8163,-2.8142,-2.8174,-2.8178,-2.8208,-2.8145,-2.8256,-2.826,-2.8264,-2.8325,-2.8335,-2.8343,0,0,0,0,0,-2.8179,-2.8223,-2.8205,-2.8209,-2.8217,-2.8235,-2.8236,-2.8212,-2.8184,-2.8204,-2.8192,-2.8163,-2.8203,-2.8178,-2.8182,-2.8213,-2.8254,-2.8259,-2.8264,-2.8321,-2.8333,-2.8343,0,0,0,0,0,0,-2.824,-2.822,-2.8201,-2.8241,-2.824,-2.8226,-2.8249,-2.8225,-2.8232,-2.8226,-2.8196,-2.8194,-2.823,-2.8224,-2.8197,-2.8263,-2.8224,-2.823,-2.8265,-2.8277,-2.8286,-2.8287,-2.8147,0,0,0,0,0,-2.8258,-2.8274,-2.8256,-2.8293,-2.8294,-2.8272,-2.8279,-2.826,-2.8258,-2.8257,-2.8247,-2.8246,-2.8258,-2.8267,-2.8278,-2.8324,-2.8321,-2.8347,-2.8356,-2.8364,-2.837,-2.8394,-2.8405,-2.8283,-2.8283,-2.8283,0,0,-2.8295,-2.8286,-2.8298,-2.8305,-2.8302,-2.832,-2.8272,-2.8292,-2.8305,-2.826,-2.8289,-2.8282,-2.8279,-2.8318,-2.8334,-2.8314,-2.8403,-2.837,-2.8377,-2.8378,-2.84,-2.8412,-2.8422,-2.8287,-2.8286,-2.8285,0,0,-2.8372,-2.8367,-2.8398,-2.8395,-2.8391,-2.8376,-2.8384,-2.8373,-2.8366,-2.8394,-2.8361,-2.8376,-2.8398,-2.8397,-2.8399,-2.8476,-2.845,-2.848,-2.8529,-2.8553,-2.8563,-2.8571,-2.8598,-2.8609,-2.8486,-2.8486,-2.8486,0,-2.8419,-2.8444,-2.8416,-2.8439,-2.8443,-2.8403,-2.8434,-2.8433,-2.8433,-2.8437,-2.8414,-2.8441,-2.8436,-2.8474,-2.8492,-2.8496,-2.8503,-2.8481,-2.8563,-2.8571,-2.8579,-2.8605,-2.8615,-2.849,-2.8489,-2.8489,-2.8488,0,-2.8502,-2.852,-2.8545,-2.8545,-2.8552,-2.8579,-2.8556,-2.8566,-2.8547,-2.8534,-2.8564,-2.8556,-2.8564,-2.8572,-2.8553,-2.8608,-2.8595,-2.8569,-2.8529,-2.8595,-2.8619,-2.8628,-2.8495,-2.8494,-2.8492,-2.8492,0,0,-2.8617,-2.8601,-2.8611,-2.8611,-2.8603,-2.8617,-2.8642,-2.8649,-2.8659,-2.866,-2.868,-2.87,-2.8675,-2.8678,-2.8659,-2.868,-2.8741,-2.865,-2.8649,-2.8667,-2.8801,-2.8821,-2.8833,-2.8724,-2.8725,-2.8727,-2.8801,0,-2.8691,-2.8732,-2.8708,-2.8754,-2.877,-2.8732,-2.8753,-2.8751,-2.8741,-2.8753,-2.8741,-2.8755,-2.8721,-2.8722,-2.8741,-2.873,-2.8767,-2.8724,-2.8743,-2.8744,-2.8745,-2.8845,-2.8867,-2.8937,-2.881,-2.8812,-2.8813,0,-2.8783,-2.8788,-2.8834,-2.8824,-2.883,-2.885,-2.8855,-2.8867,-2.8864,-2.8854,-2.8858,-2.8833,-2.8857,-2.8818,-2.885,-2.8821,-2.8828,-2.8823,-2.8825,-2.8826,-2.8782,-2.8849,-2.8959,-2.897,-2.8827,-2.8826,-2.8825,0,-2.8862,-2.888,-2.8911,-2.8912,-2.89,-2.8915,-2.8911,-2.8905,-2.8911,-2.8916,-2.892,-2.8927,-2.8932,-2.8938,-2.8917,-2.889,-2.8952,-2.8911,-2.8945,-2.8946,-2.896,-2.896,-2.9073,-2.8964,-2.8964,-2.8964,-2.8964,0,-2.8947,-2.8978,-2.8946,-2.8965,-2.8998,-2.897,-2.9003,-2.8995,-2.899,-2.9007,-2.8975,-2.8991,-2.8961,-2.8975,-2.8958,-2.8988,-2.899,-2.8983,-2.8979,-2.8987,-2.8988,-2.899,-2.8985,-2.8967,-2.8966,-2.8966,-2.8965,0,-2.9042,-2.9022,-2.9052,-2.9039,-2.9036,-2.9061,-2.9049,-2.9066,-2.9053,-2.9074,-2.9077,-2.9057,-2.9071,-2.905,-2.9062,-2.9051,-2.9092,-2.908,-2.9093,-2.909,-2.9126,-2.9123,-2.9245,-2.9259,-2.9141,-2.9142,-2.9143,0,-2.9098,-2.912,-2.9109,-2.9117,-2.9115,-2.9129,-2.9135,-2.9109,-2.9117,-2.9115,-2.9132,-2.9143,-2.9151,-2.9175,-2.9162,-2.9171,-2.9158,-2.9201,-2.916,-2.9167,-2.9159,-2.9158,-2.9161,-2.9209,-2.9211,-2.9212,-2.9213,0,-2.9199,-2.9188,-2.9198,-2.9205,-2.9213,-2.9217,-2.9218,-2.9227,-2.9199,-2.921,-2.9224,-2.923,-2.9242,-2.9254,-2.9259,-2.9255,-2.923,-2.9226,-2.9234,-2.9242,-2.9249,-2.9246,-2.9116,-2.9223,-2.9222,-2.9221,-2.9221,-2.922,-2.9276,-2.9294,-2.9289,-2.9301,-2.9299,-2.9302,-2.9317,-2.9305,-2.9316,-2.9324,-2.9308,-2.9326,-2.9322,-2.9327,-2.9325,-2.9339,-2.9321,-2.9333,-2.9336,-2.934,-2.9345,-2.9247,-2.934,-2.934,-2.9339,-2.9339,-2.9339,0,-2.9376,-2.9371,-2.9382,-2.9385,-2.9395,-2.937,-2.937,-2.938,-2.9396,-2.9394,-2.9403,-2.9419,-2.943,-2.9417,-2.9426,-2.944,-2.9428,-2.9443,-2.9442,-2.9441,-2.9361,-2.9353,-2.9452,-2.9452,-2.9452,-2.9452,-2.9452,-2.9452,-2.9429,-2.9458,-2.9447,-2.9475,-2.9469,-2.9486,-2.9489,-2.9491,-2.9489,-2.9509,-2.9518,-2.9509,-2.9503,-2.9512,-2.9521,-2.9517,-2.9522,-2.9541,-2.9533,-2.9458,-2.9447,-2.9436,-2.9429,-2.9542,-2.9542,-2.9612,-2.9612,-2.9613]},{"header":{"parameterUnit":"m.s-1","parameterCategory":1,"la1":30.2991,"la2":30.254,"lo1":-89.0895,"lo2":-89.0444,"dy":0.0017,"dx":0.0017,"nx":28,"ny":28,"refTime":"2025-11-28T09:00:00:Z","depth":0,"parameterNumber":3,"parameterNumberName":"V-component_of_WINDS"},"data":[0,0,0,0,0,0,0,0,0,0,0,0,0,0,0,0,0,0,0,0,0,0,0,0,0,0,0,0,0,0,0,0,0,0,0,0,0,0,0,0,0,0,0,0,0,0,0,0,0,0,0,0,0,0,0,0,0,0,-4.5805,-4.5806,0,-4.5894,-4.5895,-4.5896,-4.5888,-4.5887,-4.5886,-4.5884,-4.5973,-4.5976,-4.598,0,0,0,0,0,0,0,0,0,0,0,0,0,-4.5624,-4.5627,-4.5805,-4.5806,-4.5807,-4.5894,-4.5895,-4.5896,-4.5889,-4.5887,-4.5885,-4.5884,-4.5972,-4.5976,-4.598,0,0,0,0,0,0,0,0,0,0,0,0,0,-4.5707,-4.5629,-4.5804,-4.5814,-4.5815,-4.5894,-4.5895,-4.5897,-4.5889,-4.5887,-4.5885,-4.5883,-4.597,-4.5975,-4.5981,-4.6055,0,0,-4.5997,-4.6,0,0,0,0,0,0,0,0,-4.5702,-4.5713,-4.5811,-4.5813,-4.5815,-4.5878,-4.5864,-4.595,-4.5889,-4.5861,-4.5884,-4.5882,-4.5943,-4.595,-4.5971,-4.6059,-4.6063,-4.5998,-4.6001,-4.6003,-4.6005,0,0,0,0,0,0,0,-4.5696,-4.571,-4.584,-4.5812,-4.5815,-4.5812,-4.5822,-4.588,-4.5912,-4.5863,-4.5863,-4.5874,-4.5943,-4.5966,-4.5973,-4.6064,-4.5998,-4.6002,-4.6006,-4.6008,-4.6217,-4.622,0,0,0,0,0,0,-4.5689,-4.5705,-4.5837,-4.5843,-4.5753,-4.5817,-4.5828,-4.586,-4.5911,-4.5917,-4.5875,-4.5873,-4.5958,-4.5967,-4.5976,-4.6067,-4.6003,-4.6008,-4.6012,-4.6215,-4.6218,-4.622,0,0,0,0,0,0,-4.5685,-4.5701,-4.5833,-4.5774,-4.579,-4.5822,-4.5859,-4.5863,-4.5886,-4.5921,-4.5926,-4.5893,-4.5957,-4.5969,-4.6036,-4.607,-4.6011,-4.6016,-4.6212,-4.6216,-4.6219,-4.6249,0,0,0,0,0,0,-4.568,-4.57,-4.5729,-4.5774,-4.5794,-4.5892,-4.5861,-4.5866,-4.5895,-4.5893,-4.5939,-4.5944,-4.5956,-4.6028,-4.6041,-4.6076,-4.602,-4.6209,-4.6214,-4.6218,-4.6245,-4.6253,-4.6259,0,0,0,0,0,-4.5674,-4.5733,-4.573,-4.5746,-4.5831,-4.5894,-4.5905,-4.5919,-4.5898,-4.5927,-4.595,-4.5943,-4.6064,-4.6035,-4.605,-4.6087,-4.6207,-4.6213,-4.6218,-4.6241,-4.6251,-4.6259,0,0,0,0,0,0,-4.5689,-4.5739,-4.5737,-4.5813,-4.585,-4.5893,-4.593,-4.5928,-4.5971,-4.5967,-4.5981,-4.5991,-4.6058,-4.6079,-4.6046,-4.6162,-4.6133,-4.6141,-4.6146,-4.6155,-4.6162,-4.6156,-4.6025,0,0,0,0,0,-4.5701,-4.575,-4.579,-4.5853,-4.5872,-4.5898,-4.5926,-4.5933,-4.5971,-4.5987,-4.6014,-4.6051,-4.6097,-4.6127,-4.6172,-4.6248,-4.6257,-4.6281,-4.6288,-4.6294,-4.6301,-4.6343,-4.6354,-4.6238,-4.6237,-4.6237,0,0,-4.5727,-4.576,-4.579,-4.5857,-4.5886,-4.5935,-4.5911,-4.5964,-4.6,-4.5994,-4.606,-4.6081,-4.6123,-4.6195,-4.6228,-4.6214,-4.6335,-4.6301,-4.6305,-4.6309,-4.6349,-4.636,-4.637,-4.6241,-4.624,-4.624,0,0,-4.5799,-4.5829,-4.5885,-4.5915,-4.5961,-4.5978,-4.5991,-4.6035,-4.605,-4.6116,-4.6113,-4.6155,-4.6235,-4.6265,-4.6291,-4.6374,-4.6369,-4.6388,-4.6427,-4.6468,-4.6477,-4.6485,-4.6515,-4.6526,-4.6395,-4.6396,-4.6396,0,-4.5825,-4.59,-4.5914,-4.5968,-4.5997,-4.5996,-4.6052,-4.608,-4.6137,-4.6157,-4.6142,-4.6242,-4.627,-4.6349,-4.6369,-4.639,-4.6406,-4.6383,-4.6475,-4.6483,-4.6491,-4.652,-4.6531,-4.6398,-4.6397,-4.6397,-4.6397,0,-4.5929,-4.5981,-4.6021,-4.6077,-4.6111,-4.6166,-4.6188,-4.622,-4.6225,-4.6243,-4.631,-4.6344,-4.6395,-4.6414,-4.6418,-4.6494,-4.6485,-4.6472,-4.6443,-4.6504,-4.6531,-4.6542,-4.64,-4.64,-4.6399,-4.6399,0,0,-4.6013,-4.6078,-4.6092,-4.6118,-4.6168,-4.6208,-4.6262,-4.6314,-4.6341,-4.6381,-4.6426,-4.6494,-4.6483,-4.6512,-4.6519,-4.6555,-4.662,-4.6538,-4.6539,-4.6552,-4.6705,-4.6715,-4.6727,-4.6617,-4.6619,-4.662,-4.6702,0,-4.609,-4.6188,-4.6203,-4.6289,-4.6336,-4.6336,-4.6383,-4.6418,-4.6437,-4.648,-4.65,-4.6548,-4.6529,-4.6547,-4.6582,-4.6604,-4.6651,-4.6599,-4.6659,-4.6661,-4.6649,-4.6742,-4.6752,-4.6827,-4.6712,-4.6714,-4.6716,0,-4.6194,-4.6237,-4.6328,-4.6372,-4.6393,-4.6435,-4.6484,-4.6525,-4.6565,-4.6576,-4.6609,-4.6612,-4.6668,-4.6637,-4.6713,-4.6678,-4.6703,-4.6718,-4.6721,-4.6727,-4.6692,-4.6751,-4.6852,-4.6863,-4.6733,-4.6731,-4.673,0,-4.6246,-4.6327,-4.6393,-4.6415,-4.6468,-4.6498,-4.6521,-4.6559,-4.6589,-4.6631,-4.6651,-4.6698,-4.6724,-4.6761,-4.6776,-4.6752,-4.6852,-4.6822,-4.6862,-4.6862,-4.6883,-4.6882,-4.699,-4.6899,-4.6899,-4.6899,-4.6899,0,-4.6331,-4.6387,-4.6417,-4.6457,-4.6519,-4.6535,-4.6596,-4.6618,-4.6652,-4.6696,-4.6697,-4.6738,-4.6756,-4.68,-4.6812,-4.6874,-4.6885,-4.6895,-4.6898,-4.6896,-4.6894,-4.6912,-4.6908,-4.6902,-4.6901,-4.6901,-4.69,0,-4.64,-4.6423,-4.6494,-4.6539,-4.6551,-4.6595,-4.6633,-4.6671,-4.669,-4.6745,-4.6759,-4.6787,-4.6839,-4.6858,-4.692,-4.6928,-4.7,-4.6998,-4.6987,-4.6988,-4.7027,-4.7023,-4.715,-4.7168,-4.7065,-4.7066,-4.7067,0,-4.6453,-4.6496,-4.6546,-4.6576,-4.6601,-4.6649,-4.668,-4.6697,-4.6729,-4.6778,-4.6811,-4.6862,-4.6904,-4.6986,-4.7011,-4.7059,-4.7058,-4.71,-4.7066,-4.7062,-4.7059,-4.7057,-4.7061,-4.7106,-4.7107,-4.7108,-4.7109,0,-4.6544,-4.6554,-4.6599,-4.6649,-4.6687,-4.6727,-4.6765,-4.6789,-4.6812,-4.6848,-4.6901,-4.6934,-4.6998,-4.7049,-4.7098,-4.712,-4.7118,-4.712,-4.7131,-4.7129,-4.7121,-4.7126,-4.7004,-4.7117,-4.7116,-4.7115,-4.7115,-4.7114,-4.6607,-4.6646,-4.6687,-4.6738,-4.6769,-4.6805,-4.6844,-4.6868,-4.6913,-4.6967,-4.6974,-4.7031,-4.7069,-4.7135,-4.716,-4.7204,-4.7193,-4.721,-4.7215,-4.7219,-4.7222,-4.7114,-4.7213,-4.7213,-4.7213,-4.7213,-4.7212,0,-4.6699,-4.6726,-4.6773,-4.6827,-4.6867,-4.6863,-4.6905,-4.6939,-4.6989,-4.7026,-4.7068,-4.7129,-4.7178,-4.7208,-4.7258,-4.7287,-4.7288,-4.73,-4.7298,-4.7303,-4.7229,-4.7214,-4.7299,-4.7299,-4.7299,-4.7299,-4.7299,-4.7299,-4.6752,-4.6817,-4.6831,-4.6911,-4.6937,-4.6994,-4.7019,-4.7052,-4.7081,-4.715,-4.7192,-4.7211,-4.7245,-4.7297,-4.7342,-4.735,-4.7368,-4.7381,-4.7387,-4.7317,-4.7308,-4.73,-4.7286,-4.7385,-4.7385,-4.7458,-4.7459,-4.7459]}]]